Location: Riedlingen
(48.1569°N, 9.4757°E)
Time: 11:29:08
(UTC+01:00)

Amateur Radio Satellites - All Passes

Search period start: 19 November 2017 10:59
Search period end: 20 November 2017 10:59
Location: Riedlingen, 48.1569°N, 9.4757°E

Satellite Date Start Highest point End Downlink Frequencies (MHz)
Time Altitude Azimuth
EO-88 19 Nov 10:59:40 11:03:11 46° 288° (WNW) 11:06:41 145.990 - 145.960
ESTCUBE 1 19 Nov 11:00:32 11:03:56 21° 92° (E) 11:07:19 437.505/2401.250
PCSat 19 Nov 11:01:05 11:05:44 29° 249° (WSW) 11:10:21 145.827
BEESAT 2 19 Nov 11:06:09 11:08:51 17° 31° (NNE) 11:11:32 435.950
AIST 2D 19 Nov 11:25:41 11:28:40 27° 265° (W) 11:31:40 435.315
PRISM 19 Nov 11:26:27 11:27:57 12° 272° (W) 11:29:29 437.425
DUCHIFAT 1 19 Nov 11:27:34 11:31:47 76° 75° (ENE) 11:36:01 145.980
EO-79 19 Nov 11:31:45 11:36:01 77° 258° (WSW) 11:40:16 145.935-145.965
LO-87 19 Nov 11:32:00 11:35:31 55° 100° (E) 11:38:59 145.935 - 145.965
NANOSAT C BR1 19 Nov 11:36:42 11:40:57 77° 258° (WSW) 11:45:11 145.865
BEESAT 3 19 Nov 11:37:42 11:41:39 59° 48° (NE) 11:45:31 437.485
POLYITAN 1 19 Nov 11:46:30 11:50:40 54° 259° (W) 11:54:51 437.675
AO-7 19 Nov 11:50:54 11:54:46 14° 33° (NNE) 11:58:39 .
Oscar 19 19 Nov 11:52:47 11:57:03 27° 62° (ENE) 12:01:19 437.125/150
Gurwin Techsat 1B 19 Nov 11:58:39 12:02:50 24° 60° (ENE) 12:07:02 435.225
QB50P2 19 Nov 12:10:15 12:13:57 29° 265° (W) 12:17:40 145.880/145.840
AO-85 19 Nov 12:13:43 12:17:41 29° 39° (NE) 12:21:55 145.980
M-CUBED/EXP-1 PRIME 19 Nov 12:27:57 12:30:02 15° 53° (NE) 12:32:14 437.505
BUGSAT 1 19 Nov 12:29:49 12:34:02 89° 276° (W) 12:38:14 437.445
ESTCUBE 1 19 Nov 12:36:37 12:41:00 49° 290° (WNW) 12:45:22 437.505/2401.250
BEESAT 2 19 Nov 12:43:09 12:47:13 80° 52° (NE) 12:51:13 435.950
SPROUT 19 Nov 12:47:33 12:51:47 61° 101° (E) 12:55:59 437.525
DUCHIFAT 1 19 Nov 13:06:21 13:07:58 12° 272° (W) 13:09:36 145.980
LO-87 19 Nov 13:06:45 13:08:29 13° 298° (WNW) 13:10:13 145.935 - 145.965
VELOX 1 19 Nov 13:07:34 13:12:02 63° 102° (ESE) 13:16:26 145.980
O/OREOS (USA 219) 19 Nov 13:09:02 13:11:53 16° 100° (E) 13:14:43 437.305
UKube-1 19 Nov 13:13:55 13:15:30 12° 88° (E) 13:17:06 .
BEESAT 3 19 Nov 13:16:10 13:18:45 17° 247° (WSW) 13:21:18 437.485
Oscar 19 19 Nov 13:31:12 13:36:08 47° 261° (W) 13:41:06 437.125/150
Gurwin Techsat 1B 19 Nov 13:37:09 13:42:24 59° 259° (WSW) 13:47:41 435.225
AO-7 19 Nov 13:37:48 13:45:28 44° 57° (ENE) 13:53:10 .
FALCONSAT 3 19 Nov 13:40:27 13:41:37 11° 185° (S) 13:42:46 435.103
ITAMSAT 1 19 Nov 13:40:47 13:44:27 20° 57° (ENE) 13:48:07 435.822/435.867
AO-85 19 Nov 13:53:49 13:58:22 56° 237° (WSW) 14:03:14 145.980
M-CUBED/EXP-1 PRIME 19 Nov 14:00:26 14:03:56 61° 253° (WSW) 14:07:45 437.505
DX 1 19 Nov 14:00:39 14:04:59 53° 101° (E) 14:09:16 434.975-435.025
50 SAT 19 Nov 14:00:58 14:04:12 65° 102° (ESE) 14:07:24 437.505
BEESAT 2 19 Nov 14:22:32 14:24:20 13° 250° (WSW) 14:26:08 435.950
SPROUT 19 Nov 14:24:32 14:27:14 17° 300° (WNW) 14:29:55 437.525
YUBILEINY 19 Nov 14:29:12 14:33:05 13° 45° (NE) 14:36:57 435.215
VELOX 1 19 Nov 14:45:02 14:48:01 18° 300° (WNW) 14:50:59 145.980
O/OREOS (USA 219) 19 Nov 14:46:10 14:50:45 66° 299° (WNW) 14:55:22 437.305
UKube-1 19 Nov 14:47:44 14:52:06 81° 286° (WNW) 14:56:25 .
BEESAT 19 Nov 14:49:50 14:53:09 18° 91° (E) 14:56:25 436.000
ITUPSAT 1 19 Nov 14:57:42 15:01:19 21° 92° (E) 15:04:55 437.325
DOVE 4 19 Nov 15:15:02 15:18:54 23° 60° (ENE) 15:22:54 437.250
ITAMSAT 1 19 Nov 15:18:07 15:23:21 74° 256° (WSW) 15:28:37 435.822/435.867
AO-7 19 Nov 15:30:05 15:38:06 53° 258° (WSW) 15:46:13 .
MOZHAYETS 4 19 Nov 15:31:26 15:35:57 57° 101° (E) 15:40:27
DX 1 19 Nov 15:37:37 15:40:48 20° 299° (WNW) 15:43:58 434.975-435.025
CUBESAT XI-V 19 Nov 15:37:39 15:40:53 18° 90° (E) 15:44:08 437.345
LilacSat-2 19 Nov 16:05:11 16:06:14 11° 59° (ENE) 16:07:17 437.200
HO-68 19 Nov 16:05:49 16:09:34 15° 43° (NE) 16:13:20 435.675
XW-2C 19 Nov 16:06:27 16:07:07 10° 59° (ENE) 16:07:47 145.795 - 145.815
NO-84 19 Nov 16:10:13 16:13:40 34° 135° (SE) 16:17:22 435.350 FM
XW-2F 19 Nov 16:18:07 16:19:51 13° 61° (ENE) 16:21:35 145.980 - 146.000
YUBILEINY 19 Nov 16:23:57 16:32:34 51° 72° (ENE) 16:41:06 435.215
UKube-1 19 Nov 16:25:59 16:27:23 11° 305° (NW) 16:28:47 .
BEESAT 19 Nov 16:26:36 16:31:18 60° 289° (WNW) 16:35:58 436.000
O/OREOS (USA 219) 19 Nov 16:29:03 16:31:06 13° 320° (NW) 16:33:10 437.305
ITUPSAT 1 19 Nov 16:34:49 16:39:27 52° 290° (WNW) 16:44:03 437.325
CUTE-I 19 Nov 16:35:02 16:39:28 27° 61° (ENE) 16:43:56 437.470
KAITUO 1B 19 Nov 16:48:41 16:51:28 21° 65° (ENE) 16:54:17 145.475/437.950
DOVE 4 19 Nov 16:51:08 16:56:06 62° 260° (W) 17:01:19 437.250
CUTE 1.7 + AOD 2 19 Nov 16:55:32 16:56:36 11° 57° (ENE) 16:57:38 437.475
XW-2D 19 Nov 16:57:07 17:00:32 35° 70° (ENE) 17:03:58 145.860 - 145.880
ITAMSAT 1 19 Nov 17:02:27 17:03:43 11° 275° (W) 17:04:59 435.822/435.867
MOZHAYETS 4 19 Nov 17:09:27 17:12:43 20° 299° (WNW) 17:15:57
XW-2B 19 Nov 17:11:38 17:15:13 48° 72° (ENE) 17:18:52 145.730 - 145.750
CUBESAT XI-V 19 Nov 17:14:01 17:18:38 59° 288° (WNW) 17:23:14 437.345
CUBEBUG 2 19 Nov 17:27:10 17:29:49 15° 60° (ENE) 17:32:25 437.445
SEEDS 19 Nov 17:28:56 17:31:14 15° 60° (ENE) 17:33:34 437.485
LilacSat-2 19 Nov 17:36:09 17:39:55 79° 258° (WSW) 17:43:42 437.200
NUDT-PHONESAT 19 Nov 17:36:12 17:39:49 66° 74° (ENE) 17:43:27 437.300
XW-2C 19 Nov 17:36:57 17:40:41 83° 257° (WSW) 17:44:27 145.795 - 145.815
KKS-1 19 Nov 17:39:23 17:43:52 65° 102° (ESE) 17:48:17 437.445
NO-84 19 Nov 17:47:02 17:50:54 55° 336° (NNW) 17:55:01 435.350 FM
HO-68 19 Nov 17:48:51 17:55:50 56° 65° (ENE) 18:02:51 435.675
XW-2F 19 Nov 17:49:48 17:53:28 63° 259° (WSW) 17:57:12 145.980 - 146.000
XW-2A 19 Nov 18:01:17 18:02:33 12° 62° (ENE) 18:03:49 145.665 - 145.685
STARS 19 Nov 18:09:53 18:14:14 55° 101° (E) 18:18:32 437.465
CUTE-I 19 Nov 18:14:00 18:19:13 52° 260° (W) 18:24:30 437.470
YUBILEINY 19 Nov 18:21:07 18:29:14 43° 274° (W) 18:37:21 435.215
KAITUO 1B 19 Nov 18:21:54 18:25:16 33° 263° (W) 18:28:40 145.475/437.950
ZACube-1 19 Nov 18:23:38 18:26:22 17° 61° (ENE) 18:29:05 437.345
UWE-3 19 Nov 18:27:04 18:30:58 31° 67° (ENE) 18:34:49 435.000/436.395/437.385
CUTE 1.7 + AOD 2 19 Nov 18:27:30 18:31:42 82° 76° (ENE) 18:35:56 437.475
XW-2D 19 Nov 18:32:01 18:34:49 20° 267° (W) 18:37:38 145.860 - 145.880
RS-15 19 Nov 18:47:29 18:58:57 49° 111° (ESE) 19:10:21 29.354- 29.394
XW-2B 19 Nov 18:47:33 18:49:41 15° 270° (W) 18:51:51 145.730 - 145.750
STRAND 1 19 Nov 18:54:45 18:58:36 21° 91° (E) 19:02:25 437.568
CUBEBUG 2 19 Nov 19:01:18 19:05:55 75° 257° (WSW) 19:10:24 437.445
SEEDS 19 Nov 19:02:16 19:06:24 69° 258° (WSW) 19:10:36 437.485
NUDT-PHONESAT 19 Nov 19:13:21 19:14:06 10° 272° (W) 19:14:50 437.300
AO-73 19 Nov 19:14:22 19:18:27 43° 70° (ENE) 19:22:27 145.935
AAUSAT CUBESAT 2 19 Nov 19:15:29 19:19:36 75° 75° (ENE) 19:23:47 437.432
KKS-1 19 Nov 19:17:00 19:19:57 17° 301° (WNW) 19:22:52 437.445
NO-84 19 Nov 19:25:11 19:28:53 31° 357° (N) 19:32:43 435.350 FM
FO-29 19 Nov 19:25:59 19:31:10 19° 83° (E) 19:36:13 435.910
XW-2A 19 Nov 19:31:34 19:34:49 54° 260° (W) 19:38:06 145.665 - 145.685
Oscar 11 19 Nov 19:33:07 19:37:13 46° 71° (ENE) 19:41:21 .
HO-68 19 Nov 19:37:27 19:43:52 34° 265° (W) 19:50:21 435.675
STARS 19 Nov 19:47:03 19:50:11 19° 299° (WNW) 19:53:18 437.465
ZACube-1 19 Nov 19:57:56 20:02:14 61° 259° (WSW) 20:06:28 437.345
UWE-3 19 Nov 20:03:25 20:07:24 31° 264° (W) 20:11:18 435.000/436.395/437.385
Max Valier Satellite 19 Nov 20:05:04 20:07:11 15° 63° (ENE) 20:09:19 145.860
DELFI C3 19 Nov 20:06:35 20:09:45 23° 65° (ENE) 20:12:56 145.870
CUTE 1.7 + AOD 2 19 Nov 20:07:01 20:08:07 11° 273° (W) 20:09:13 437.475
EO-88 19 Nov 20:09:00 20:10:27 12° 61° (ENE) 20:11:55 145.990 - 145.960
STRAND 1 19 Nov 20:33:07 20:38:11 59° 289° (WNW) 20:43:10 437.568
AO-73 19 Nov 20:51:36 20:54:52 21° 268° (W) 20:58:06 145.935
AAUSAT CUBESAT 2 19 Nov 20:54:05 20:55:35 12° 273° (W) 20:57:05 437.432
RS-15 19 Nov 20:58:50 21:11:09 67° 317° (NW) 21:23:18 29.354- 29.394
NO-84 19 Nov 21:02:57 21:06:59 42° 18° (NNE) 21:11:04 435.350 FM
FO-29 19 Nov 21:09:26 21:17:23 79° 103° (ESE) 21:24:59 435.910
Oscar 11 19 Nov 21:10:27 21:13:36 20° 269° (W) 21:16:46 .
ISS 19 Nov 21:18:14 21:19:41 12° 135° (SE) 21:21:08 437.550
UNISAT 6 19 Nov 21:25:34 21:28:56 22° 92° (E) 21:32:16 437.425
TIGRISAT 19 Nov 21:30:28 21:33:52 22° 93° (E) 21:37:14 435.000
O/OREOS (USA 219) 19 Nov 21:36:05 21:37:31 11° 39° (NE) 21:38:57 437.305
Max Valier Satellite 19 Nov 21:37:05 21:40:38 49° 260° (W) 21:44:13 145.860
EO-88 19 Nov 21:40:01 21:43:36 65° 259° (WSW) 21:47:13 145.990 - 145.960
DELFI C3 19 Nov 21:40:41 21:44:19 35° 263° (W) 21:48:01 145.870
ESTCUBE 1 19 Nov 22:03:14 22:07:04 29° 65° (ENE) 22:10:56 437.505/2401.250
LO-87 19 Nov 22:10:56 22:14:18 37° 70° (ENE) 22:17:41 145.935 - 145.965
SPROUT 19 Nov 22:12:39 22:12:54 10° 55° (NE) 22:13:09 437.525
nSIGHT-1 19 Nov 22:14:51 22:17:53 40° 147° (SSE) 22:20:55 .
STRAND 1 19 Nov 22:15:14 22:16:18 11° 309° (NW) 22:17:23 437.568
VELOX 1 19 Nov 22:34:41 22:36:31 12° 56° (NE) 22:38:21 145.980
NO-84 19 Nov 22:40:19 22:44:33 63° 217° (SW) 22:48:45 435.350 FM
AIST 2D 19 Nov 22:46:59 22:49:20 17° 92° (E) 22:51:40 435.315
ISS 19 Nov 22:52:23 22:55:38 64° 152° (SSE) 22:58:54 437.550
SO-50 19 Nov 22:54:15 22:58:42 71° 125° (SE) 23:03:13 436.795
FO-29 19 Nov 22:55:09 23:01:39 30° 304° (NW) 23:08:02 435.910
PRISM 19 Nov 23:00:40 23:04:52 74° 103° (ESE) 23:09:01 437.425
UNISAT 6 19 Nov 23:01:47 23:05:50 41° 291° (WNW) 23:09:50 437.425
TIGRISAT 19 Nov 23:06:42 23:10:44 39° 291° (WNW) 23:14:41 435.000
O/OREOS (USA 219) 19 Nov 23:13:28 23:17:59 57° 60° (ENE) 23:22:27 437.305
EO-79 19 Nov 23:14:13 23:16:17 13° 89° (E) 23:18:20 145.935-145.965
RS-15 19 Nov 23:15:09 23:26:21 38° 347° (NNW) 23:37:14 29.354- 29.394
NANOSAT C BR1 19 Nov 23:18:48 23:20:49 13° 89° (E) 23:22:50 145.865
DX 1 19 Nov 23:27:16 23:28:09 11° 54° (NE) 23:29:03 434.975-435.025
POLYITAN 1 19 Nov 23:28:16 23:31:13 18° 92° (E) 23:34:10 437.675
ESTCUBE 1 19 Nov 23:39:41 23:43:46 35° 263° (W) 23:47:55 437.505/2401.250
SPROUT 19 Nov 23:43:43 23:48:00 73° 74° (ENE) 23:52:17 437.525
LO-87 19 Nov 23:45:23 23:47:51 17° 268° (W) 23:50:21 145.935 - 145.965
QB50P2 19 Nov 23:50:47 23:54:38 34° 97° (E) 23:58:28 145.880/145.840
nSIGHT-1 19 Nov 23:50:54 23:54:05 55° 347° (NNW) 23:57:15 .
PCSat 20 Nov 00:03:48 00:07:47 21° 107° (ESE) 00:11:47 145.827
VELOX 1 20 Nov 00:07:48 00:12:14 85° 77° (ENE) 00:16:43 145.980
UKube-1 20 Nov 00:11:05 00:13:57 18° 60° (ENE) 00:16:49 .
AIST 2D 20 Nov 00:19:22 00:22:39 37° 289° (WNW) 00:25:55 435.315
NO-84 20 Nov 00:19:24 00:21:13 12° 235° (SW) 00:23:00 435.350 FM
ISS 20 Nov 00:29:03 00:32:14 47° 352° (N) 00:35:25 437.550
50 SAT 20 Nov 00:31:14 00:34:12 34° 70° (ENE) 00:37:12 437.505
SO-50 20 Nov 00:35:56 00:39:37 24° 326° (NNW) 00:43:20 436.795
PRISM 20 Nov 00:37:24 00:39:35 14° 301° (WNW) 00:41:45 437.425
DUCHIFAT 1 20 Nov 00:43:17 00:47:28 85° 100° (E) 00:51:38 145.980
EO-79 20 Nov 00:48:19 00:52:30 67° 286° (WNW) 00:56:39 145.935-145.965
NANOSAT C BR1 20 Nov 00:52:49 00:57:00 68° 287° (WNW) 01:01:08 145.865
O/OREOS (USA 219) 20 Nov 00:53:50 00:56:58 18° 259° (W) 01:00:03 437.305
DX 1 20 Nov 00:59:11 01:03:32 73° 73° (ENE) 01:07:56 434.975-435.025
MOZHAYETS 4 20 Nov 01:02:44 01:04:35 12° 56° (NE) 01:06:26
POLYITAN 1 20 Nov 01:03:13 01:07:16 47° 290° (WNW) 01:11:17 437.675
SPROUT 20 Nov 01:22:25 01:24:23 13° 272° (W) 01:26:21 437.525
QB50P2 20 Nov 01:26:47 01:30:19 26° 295° (WNW) 01:33:49 145.880/145.840
nSIGHT-1 20 Nov 01:27:32 01:30:38 44° 6° (N) 01:33:44 .
RS-15 20 Nov 01:31:23 01:42:44 42° 21° (NNE) 01:53:33 29.354- 29.394
Oscar 19 20 Nov 01:38:43 01:43:41 45° 99° (E) 01:48:38 437.125/150
BUGSAT 1 20 Nov 01:43:07 01:47:12 86° 284° (WNW) 01:51:13 437.445
PCSat 20 Nov 01:45:14 01:50:39 70° 307° (NW) 01:56:05 145.827
UKube-1 20 Nov 01:45:15 01:49:31 60° 258° (WSW) 01:53:50 .
VELOX 1 20 Nov 01:47:45 01:49:18 12° 273° (W) 01:50:50 145.980
Gurwin Techsat 1B 20 Nov 01:49:37 01:54:40 41° 98° (E) 01:59:41 435.225
BEESAT 20 Nov 01:59:12 02:03:25 33° 65° (ENE) 02:07:40 436.000
50 SAT 20 Nov 02:04:27 02:06:27 15° 267° (W) 02:08:27 437.505
ISS 20 Nov 02:05:50 02:09:03 52° 12° (NNE) 02:12:15 437.550
ITUPSAT 1 20 Nov 02:07:28 02:11:51 38° 67° (ENE) 02:16:16 437.325
SO-50 20 Nov 02:20:32 02:21:42 11° 351° (N) 02:22:53 436.795
DUCHIFAT 1 20 Nov 02:20:47 02:22:30 12° 302° (WNW) 02:24:14 145.980
MOZHAYETS 4 20 Nov 02:36:26 02:41:00 83° 74° (ENE) 02:45:35
DX 1 20 Nov 02:38:05 02:40:13 13° 271° (W) 02:42:23 434.975-435.025
CUBESAT XI-V 20 Nov 02:44:08 02:47:58 27° 64° (ENE) 02:51:50 437.345
nSIGHT-1 20 Nov 03:03:49 03:07:02 75° 205° (SSW) 03:10:12 .
KKS-1 20 Nov 03:06:54 03:09:05 13° 56° (ENE) 03:11:15 437.445
BEESAT 3 20 Nov 03:07:27 03:10:57 30° 118° (ESE) 03:14:28 437.485
M-CUBED/EXP-1 PRIME 20 Nov 03:08:24 03:12:48 54° 106° (ESE) 03:17:20 437.505
Oscar 19 20 Nov 03:18:26 03:22:49 29° 297° (WNW) 03:27:12 437.125/150
BUGSAT 1 20 Nov 03:20:57 03:21:51 11° 304° (WNW) 03:22:46 437.445
AO-7 20 Nov 03:27:08 03:35:02 44° 99° (E) 03:42:54 .
ITAMSAT 1 20 Nov 03:27:37 03:32:10 29° 95° (E) 03:36:40 435.822/435.867
Gurwin Techsat 1B 20 Nov 03:29:48 03:34:30 33° 297° (WNW) 03:39:11 435.225
PCSat 20 Nov 03:31:08 03:35:02 19° 329° (NNW) 03:38:56 145.827
BEESAT 20 Nov 03:36:48 03:41:09 34° 263° (W) 03:45:31 436.000
STARS 20 Nov 03:36:54 03:38:16 11° 55° (NE) 03:39:39 437.465
ISS 20 Nov 03:42:22 03:45:33 47° 211° (SSW) 03:48:41 437.550
RS-15 20 Nov 03:44:57 03:57:03 85° 52° (NE) 04:08:25 29.354- 29.394
ITUPSAT 1 20 Nov 03:45:33 03:49:44 30° 265° (W) 03:53:57 437.325
SO-50 20 Nov 04:02:17 04:04:14 12° 16° (NNE) 04:06:10 436.795
AO-85 20 Nov 04:13:09 04:15:44 17° 112° (ESE) 04:18:23 145.980
BEESAT 2 20 Nov 04:14:24 04:18:12 42° 121° (ESE) 04:22:04 435.950
MOZHAYETS 4 20 Nov 04:16:51 04:18:46 12° 273° (W) 04:20:40
CUBESAT XI-V 20 Nov 04:20:52 04:25:11 39° 263° (W) 04:29:32 437.345
KKS-1 20 Nov 04:40:28 04:44:57 89° 257° (WSW) 04:49:29 437.445
nSIGHT-1 20 Nov 04:40:58 04:42:48 14° 223° (SW) 04:44:38 .
M-CUBED/EXP-1 PRIME 20 Nov 04:43:24 04:46:52 23° 303° (WNW) 04:50:27 437.505
BEESAT 3 20 Nov 04:44:41 04:48:25 37° 317° (NW) 04:52:10 437.485
DOVE 4 20 Nov 04:46:36 04:51:18 32° 93° (E) 04:55:48 437.250
ITAMSAT 1 20 Nov 05:06:50 05:11:47 43° 293° (WNW) 05:16:40 435.822/435.867
STARS 20 Nov 05:09:25 05:13:50 77° 74° (ENE) 05:18:18 437.465
AO-7 20 Nov 05:19:58 05:27:57 52° 300° (WNW) 05:35:56 .
PCSat 20 Nov 05:20:04 05:20:44 10° 355° (N) 05:21:23 145.827
XW-2F 20 Nov 05:20:24 05:21:07 10° 88° (E) 05:21:49 145.980 - 146.000
YUBILEINY 20 Nov 05:29:20 05:37:38 51° 89° (E) 05:46:01 435.215
SO-50 20 Nov 05:41:53 05:46:04 32° 39° (NE) 05:50:16 436.795
FO-29 20 Nov 05:44:17 05:47:45 14° 43° (NE) 05:51:22 435.910
KAITUO 1B 20 Nov 05:49:30 05:52:06 18° 92° (E) 05:54:41 145.475/437.950
AO-85 20 Nov 05:51:47 05:55:39 57° 312° (NW) 05:59:45 145.980
BEESAT 2 20 Nov 05:52:31 05:56:04 29° 320° (NW) 05:59:39 435.950
RS-15 20 Nov 05:58:25 06:08:07 32° 256° (WSW) 06:17:28 29.354- 29.394
XW-2D 20 Nov 05:59:40 06:03:05 31° 96° (E) 06:06:30 145.860 - 145.880
CUTE 1.7 + AOD 2 20 Nov 06:10:40 06:12:07 11° 87° (E) 06:13:33 437.475
STRAND 1 20 Nov 06:13:41 06:18:32 43° 67° (ENE) 06:23:25 437.568
XW-2B 20 Nov 06:14:16 06:17:56 43° 99° (E) 06:21:34 145.730 - 145.750
KKS-1 20 Nov 06:21:04 06:22:11 11° 273° (W) 06:23:18 437.445
DOVE 4 20 Nov 06:24:09 06:29:02 39° 293° (WNW) 06:33:43 437.250
BEESAT 3 20 Nov 06:25:57 06:27:03 11° 339° (NNW) 06:28:10 437.485
CUTE-I 20 Nov 06:27:07 06:32:21 48° 99° (E) 06:37:30 437.470
NUDT-PHONESAT 20 Nov 06:36:09 06:39:48 55° 100° (E) 06:43:26 437.300
LilacSat-2 20 Nov 06:39:41 06:43:31 86° 289° (WNW) 06:47:22 437.200
XW-2C 20 Nov 06:39:41 06:43:30 88° 100° (E) 06:47:19 145.795 - 145.815
SEEDS 20 Nov 06:43:17 06:45:53 16° 89° (E) 06:48:30 437.485
STARS 20 Nov 06:48:41 06:50:43 13° 272° (W) 06:52:45 437.465
CUBEBUG 2 20 Nov 06:49:30 06:52:14 17° 90° (E) 06:54:55 437.445
XW-2F 20 Nov 06:51:54 06:55:41 72° 285° (WNW) 06:59:28 145.980 - 146.000
HO-68 20 Nov 07:00:04 07:06:50 42° 97° (E) 07:13:31 435.675
PCSat 20 Nov 07:03:46 07:06:41 14° 22° (NNE) 07:09:35 145.827
AO-7 20 Nov 07:14:12 07:18:54 17° 323° (NW) 07:23:36 .
SO-50 20 Nov 07:22:14 07:26:42 47° 239° (WSW) 07:31:12 436.795
KAITUO 1B 20 Nov 07:22:42 07:26:15 40° 289° (WNW) 07:29:48 145.475/437.950
FO-29 20 Nov 07:24:33 07:31:02 53° 66° (ENE) 07:38:16 435.910
YUBILEINY 20 Nov 07:26:22 07:34:36 44° 291° (WNW) 07:42:57 435.215
XW-2D 20 Nov 07:34:04 07:37:08 24° 294° (WNW) 07:40:11 145.860 - 145.880
AO-85 20 Nov 07:34:42 07:37:00 14° 336° (NNW) 07:39:22 145.980
ZACube-1 20 Nov 07:43:06 07:46:04 19° 91° (E) 07:49:02 437.345
CUTE 1.7 + AOD 2 20 Nov 07:44:13 07:48:30 81° 284° (WNW) 07:52:47 437.475
UWE-3 20 Nov 07:48:44 07:52:38 38° 97° (E) 07:56:30 435.000/436.395/437.385
XW-2B 20 Nov 07:49:12 07:51:49 18° 296° (WNW) 07:54:26 145.730 - 145.750
STRAND 1 20 Nov 07:53:24 07:57:52 29° 266° (W) 08:02:20 437.568
CUTE-I 20 Nov 08:07:35 08:12:10 29° 298° (WNW) 08:16:43 437.470
NUDT-PHONESAT 20 Nov 08:11:12 08:13:14 14° 298° (WNW) 08:15:16 437.300
XW-2C 20 Nov 08:16:35 08:17:03 10° 301° (WNW) 08:17:30 145.795 - 145.815
SEEDS 20 Nov 08:17:46 08:21:56 58° 287° (WNW) 08:26:06 437.485
PRISM 20 Nov 08:21:12 08:22:21 11° 56° (NE) 08:23:29 437.425
XW-2A 20 Nov 08:21:47 08:25:09 89° 282° (WNW) 08:28:31 145.665 - 145.685
CUBEBUG 2 20 Nov 08:25:06 08:29:12 51° 288° (WNW) 08:33:13 437.445
UNISAT 6 20 Nov 08:27:17 08:31:19 32° 67° (ENE) 08:35:18 437.425
AAUSAT CUBESAT 2 20 Nov 08:29:01 08:33:14 86° 103° (ESE) 08:37:26 437.432
TIGRISAT 20 Nov 08:32:02 08:36:05 32° 67° (ENE) 08:40:04 435.000
AO-73 20 Nov 08:34:18 08:38:23 55° 100° (E) 08:42:27 145.935
PCSat 20 Nov 08:46:25 08:51:34 42° 46° (NE) 08:56:42 145.827
HO-68 20 Nov 08:47:50 08:54:39 47° 298° (WNW) 09:01:25 435.675
Oscar 11 20 Nov 08:52:20 08:56:37 59° 101° (E) 09:00:54 .
Max Valier Satellite 20 Nov 09:04:53 09:06:10 11° 89° (E) 09:07:25 145.860
FO-29 20 Nov 09:10:14 09:16:20 37° 268° (W) 09:23:06 435.910
DELFI C3 20 Nov 09:13:49 09:17:00 22° 93° (E) 09:20:10 145.870
ZACube-1 20 Nov 09:18:38 09:22:36 45° 289° (WNW) 09:26:33 437.345
CUTE 1.7 + AOD 2 20 Nov 09:22:30 09:23:36 11° 303° (WNW) 09:24:42 437.475
UWE-3 20 Nov 09:25:38 09:28:55 23° 295° (WNW) 09:32:11 435.000/436.395/437.385
AIST 2D 20 Nov 09:25:45 09:26:59 12° 61° (ENE) 09:28:14 435.315
YUBILEINY 20 Nov 09:32:17 09:34:28 11° 319° (NW) 09:36:40 435.215
BEESAT 3 20 Nov 09:43:41 09:45:50 14° 27° (NNE) 09:47:56 437.485
PRISM 20 Nov 09:52:46 09:56:54 84° 75° (ENE) 10:01:05 437.425
UNISAT 6 20 Nov 10:03:53 10:07:59 32° 264° (W) 10:12:03 437.425
DUCHIFAT 1 20 Nov 10:05:15 10:07:05 13° 58° (ENE) 10:08:55 145.980
AAUSAT CUBESAT 2 20 Nov 10:06:22 10:08:02 12° 302° (WNW) 10:09:43 437.432
TIGRISAT 20 Nov 10:08:40 10:12:44 31° 264° (W) 10:16:46 435.000
EO-79 20 Nov 10:09:42 10:12:30 17° 61° (ENE) 10:15:18 145.935-145.965
AO-73 20 Nov 10:11:32 10:14:14 17° 298° (WNW) 10:16:55 145.935
NANOSAT C BR1 20 Nov 10:13:57 10:16:41 17° 61° (ENE) 10:19:27 145.865
POLYITAN 1 20 Nov 10:23:57 10:27:18 23° 64° (ENE) 10:30:39 437.675
Oscar 11 20 Nov 10:29:28 10:32:20 18° 299° (WNW) 10:35:12 .
PCSat 20 Nov 10:29:57 10:34:58 39° 246° (WSW) 10:39:57 145.827
Max Valier Satellite 20 Nov 10:36:44 10:40:22 61° 286° (WNW) 10:43:59 145.860
HO-68 20 Nov 10:37:50 10:40:41 13° 320° (NW) 10:43:32 435.675
EO-88 20 Nov 10:38:15 10:41:56 84° 282° (WNW) 10:45:35 145.990 - 145.960
QB50P2 20 Nov 10:46:22 10:50:21 41° 69° (ENE) 10:54:21 145.880/145.840
DELFI C3 20 Nov 10:48:09 10:51:50 36° 291° (WNW) 10:55:30 145.870
BEESAT 2 20 Nov 10:51:25 10:54:11 17° 31° (NNE) 10:56:55 435.950
